Regional Weather Roundup
Issued by NWS

Home | Current Version | Previous Version | Graphics & Text | Print | Product List | Glossary On
Versions: 1 2 3 4 5 6 7 8 9 10 11 12 13 14 15 16 17 18 19 20 21 22 23 24 25 26 27 28 29 30 31 32 33 34 35 36 37 38 39 40 41 42 43 44 45 46 47 48 49 50
165
ASUS45 KCYS 082110
RWRWY

WYOMING REGIONAL WEATHER ROUNDUP
NATIONAL WEATHER SERVICE CHEYENNE WY
200 PM MST MON FEB 08 2016

NOTE:  "FAIR" INDICATES FEW OR NO CLOUDS BELOW 12,000 FEET
WITH NO SIGNIFICANT WEATHER AND/OR OBSTRUCTIONS TO VISIBILITY.

WYZ001-082200-
YELLOWSTONE NATIONAL PARK

CITY           SKY/WX    TMP DP  RH WIND       PRES   REMARKS
LK YELLOWSTONE   N/A     27  18  69 VRB6      30.56F WCI  20
W YELLOWSTONE  NOT AVBL

$$
WYZ002>013-054>058-071-098>099-082200-
NORTHERN WYOMING

CITY           SKY/WX    TMP DP  RH WIND       PRES   REMARKS
JACKSON        SUNNY     28  19  69 CALM      30.59F
CODY           FAIR      50  21  32 NE10      30.38F
GREYBULL       FAIR      42  18  37 S6        30.41F
WORLAND        FAIR      41  20  43 N5        30.41F
SHERIDAN       FAIR      52  29  41 NW20G28   30.33F
BUFFALO        FAIR      47  29  49 N17G24    30.33S
GILLETTE       FAIR      42  26  53 NW21      30.30F
HULETT         CLOUDY    39  19  45 NW8       30.30F WCI  34
NEWCASTLE      FAIR      39  12  33 NW23      30.28F WCI  29

$$
WYZ014>020-022>026-101>103-082200-
CENTRAL WYOMING

CITY           SKY/WX    TMP DP  RH WIND       PRES   REMARKS
BIG PINEY      FAIR      41  24  51 N21       30.50F
PINEDALE       FAIR      37  23  56 W24G30    30.48F WCI  26
DUBOIS         FAIR      43  18  36 W22       30.43S
LANDER         FAIR      35  20  54 NW6       30.39F WCI  30
RIVERTON       FAIR      33  20  58 CALM      30.41F
CASPER         FAIR      36  23  59 SW15      30.37F WCI  27
DOUGLAS        PTSUNNY   41  25  53 NW17        N/A

$$
WYZ021-027>030-104>119-082200-
SOUTHERN WYOMING

CITY           SKY/WX    TMP DP  RH WIND       PRES   REMARKS
EVANSTON       FAIR      28  16  60 CALM      30.59F
KEMMERER       FAIR      37  27  65 NW21G28   30.54F WCI  27
FORT BRIDGER   CLEAR     36  27  69 W21       30.59F WCI  24
ROCK SPRINGS   FAIR      36  25  64 W26       30.48F WCI  24
DIXON          FAIR      33  20  59 CALM      30.55F
RAWLINS        FAIR      33  21  61 SW30G38   30.43F WCI  19
SARATOGA       FAIR      36  25  64 W15       30.46F WCI  26
LARAMIE        FAIR      39  25  57 NW25G37   30.35F WCI  28
CHEYENNE       FAIR      42  24  49 NW14G29   30.31F
TORRINGTON     CLOUDY    43  24  47 NW16      30.30F
PINE BLUFFS    MOCLDY    41  28  60 NW25G32   30.31F

$$




USA.gov is the U.S. government's official web portal to all federal, state and local government web resources and services.